This is the latest recevied weather packets stored in our database for station/object VK2EHQ. If no packets are shown the sender has not sent any weather packets the latest 10 day(s).
| Time | Temp. | Humidity | Pressure | Rain* | Wind** | Luminosity | Snow |
|---|---|---|---|---|---|---|---|
| 1788062394 | 19.44° C | 54% | 1029.9 hPa | 0 mm | - | - | - |
| 1788061794 | 19.44° C | 54% | 1029.9 hPa | 0 mm | - | - | - |
| 1788061194 | 19.44° C | 58% | 1029.9 hPa | 0 mm | - | - | - |
| 1788060594 | 19.44° C | 59% | 1030 hPa | 0 mm | - | - | - |
| 1788059994 | 19.44° C | 58% | 1030 hPa | 0 mm | - | - | - |
| 1788059394 | 18.89° C | 58% | 1030.2 hPa | 0 mm | - | - | - |
| 1788058794 | 18.89° C | 59% | 1030.3 hPa | 0 mm | - | - | - |
| 1788058194 | 18.89° C | 61% | 1030.4 hPa | 0 mm | - | - | - |
| 1788057594 | 18.89° C | 62% | 1030.5 hPa | 0 mm | - | - | - |
| 1788056994 | 18.89° C | 65% | 1030.6 hPa | 0 mm | - | - | - |
| 1788056394 | 18.33° C | 65% | 1030.8 hPa | 0 mm | - | - | - |
| 1788055794 | 17.78° C | 61% | 1030.9 hPa | 0 mm | - | - | - |
| 1788055194 | 17.22° C | 48% | 1031.1 hPa | 0 mm | - | - | - |
| 1788054594 | 16.67° C | 27% | 1031.3 hPa | 0 mm | - | - | - |
| 1788053994 | 15.56° C | 12% | 1031.4 hPa | 0 mm | - | - | - |
| 1788053405 | 15° C | 11% | 1031.6 hPa | 0 mm | - | - | - |
| 1788052793 | 13.89° C | 12% | 1031.6 hPa | 0 mm | - | - | - |
| 1788052193 | 13.89° C | 13% | 1031.6 hPa | 0 mm | - | - | - |
| 1788051593 | 13.33° C | 13% | 1031.7 hPa | 0 mm | - | - | - |
| 1788050993 | 13.33° C | 14% | 1031.8 hPa | 0 mm | - | - | - |
| 1788050393 | 12.78° C | 15% | 1031.8 hPa | 0 mm | - | - | - |
| 1788049793 | 12.78° C | 15% | 1031.9 hPa | 0 mm | - | - | - |
| 1788049193 | 12.22° C | 17% | 1031.9 hPa | 0 mm | - | - | - |
| 1788048593 | 12.22° C | 17% | 1031.9 hPa | 0 mm | - | - | - |
| 1788047993 | 11.67° C | 18% | 1031.9 hPa | 0 mm | - | - | - |
* Rain latest hour (hover to see other rain measurements)
** Current wind speed in m/s (hover to see current wind gust speed)